Weather History for KEYW - July, 2013

Change the Weather History Date:

Friday, July 19, 2013

  Actual Average Record
Temperature  
Mean Temperature 82 °F 85 °F  
Max Temperature 87 °F 90 °F 97 °F (1880)
Min Temperature 77 °F 80 °F 70 °F (1932)
Degree Days  
Heating Degree Days 0 0  
Month to date heating degree days 0 0  
Since 1 June heating degree days 0 0  
Since 1 July heating degree days 0 0  
Cooling Degree Days 17 20  
Month to date cooling degree days 321 368  
Year to date cooling degree days 2508 2347  
Since 1 June cooling degree days 879 917  
Growing Degree Days 32 (Base 50)    
Moisture  
Dew Point 77 °F    
Average Humidity 83    
Maximum Humidity 94    
Minimum Humidity 72    
Precipitation  
Precipitation T in 0.11 in 0.89 in (1897)
Month to date precipitation 7.79 2.17  
Year to date precipitation 31.12 16.91  
Snow  
Snow 0.00 in - - ()
Month to date snowfall 0.0  
Since 1 June snowfall 0.0  
Since 1 July snowfall 0.0  
Snow Depth 0.00 in    
Sea Level Pressure  
Sea Level Pressure 30.07 in    
Wind  
Wind Speed 12 mph (ESE)    
Max Wind Speed 16 mph    
Max Gust Speed 22 mph    
Visibility 10 miles    
Events      
T = Trace of Precipitation, MM = Missing Value Source: NWS Daily Summary

Daily Weather History Graph

Daily Weather History Graph

Search for Another Location

Airport or City:

Trip Planner

Search our weather history database for the weather conditions in past years. The results will help you decide how hot, cold, wet, or windy it might be!

Date:

Astronomy

Jul. 19, 2013 Rise Set
Actual Time 6:49 AM EDT 8:17 PM EDT
Civil Twilight 6:24 AM EDT 8:42 PM EDT
Nautical Twilight 5:54 AM EDT 9:11 PM EDT
Astronomical Twilight 5:23 AM EDT 9:42 PM EDT
Moon 5:18 PM EDT (7/19) 3:27 AM EDT (7/19)
Length of Visible Light 14h 17m
Length of Day
13h 27m
Waxing Gibbous, 86% of the Moon is Illuminated
Jul 19
Waxing Gibbous
Jul 22
Full
Jul 29
Last Quarter
Aug 6
New
Aug 14
First Quarter

Hourly Weather History & Observations

Time (EDT) Temp. Heat Index Dew Point Humidity Pressure Visibility Wind Dir Wind Speed Gust Speed Precip Events Conditions
12:53 AM 77.0 °F - 75.0 °F 94% 30.08 in - ENE 5.8 mph - N/A   Clear
1:53 AM 78.1 °F - 75.9 °F 93% 30.07 in - ENE 5.8 mph - N/A   Clear
2:53 AM 78.1 °F - 75.9 °F 93% 30.06 in - NE 4.6 mph - N/A   Scattered Clouds
3:53 AM 81.0 °F 87.9 °F 77.0 °F 88% 30.06 in - East 8.1 mph - N/A   Clear
4:53 AM 81.0 °F 87.3 °F 75.9 °F 85% 30.07 in - ESE 10.4 mph - N/A   Clear
5:53 AM 81.0 °F 87.3 °F 75.9 °F 85% 30.06 in - ESE 8.1 mph - N/A   Clear
6:53 AM 81.0 °F 87.9 °F 77.0 °F 88% 30.07 in 10.0 mi ESE 11.5 mph - N/A   Clear
7:53 AM 82.0 °F 90.2 °F 77.0 °F 85% 30.08 in 10.0 mi ESE 10.4 mph - N/A   Clear
8:53 AM 82.0 °F 89.4 °F 75.9 °F 82% 30.09 in 10.0 mi ESE 11.5 mph - N/A   Partly Cloudy
9:53 AM 82.9 °F 91.8 °F 77.0 °F 82% 30.10 in - ESE 11.5 mph - N/A   Clear
10:53 AM 84.0 °F 92.6 °F 75.9 °F 76% 30.11 in 10.0 mi ESE 15.0 mph - N/A   Clear
11:53 AM 84.9 °F 95.3 °F 77.0 °F 77% 30.10 in 10.0 mi ESE 13.8 mph - N/A   Partly Cloudy
12:53 PM 86.0 °F 96.9 °F 77.0 °F 74% 30.09 in - ESE 13.8 mph - N/A   Clear
1:53 PM 87.1 °F 98.8 °F 77.0 °F 72% 30.09 in 10.0 mi ESE 15.0 mph - N/A   Clear
2:53 PM 86.0 °F 96.9 °F 77.0 °F 74% 30.07 in 10.0 mi ESE 13.8 mph - N/A   Partly Cloudy
3:53 PM 86.0 °F 98.3 °F 78.1 °F 77% 30.06 in 10.0 mi ESE 11.5 mph - N/A   Partly Cloudy
4:53 PM 84.9 °F 95.3 °F 77.0 °F 77% 30.05 in 10.0 mi ESE 12.7 mph - N/A   Scattered Clouds
5:04 PM 84.2 °F 94.1 °F 77.0 °F 79% 30.05 in 10.0 mi East 10.4 mph - N/A   Mostly Cloudy
5:26 PM 86.0 °F 99.3 °F 78.8 °F 79% 30.04 in 10.0 mi East 11.5 mph - N/A   Scattered Clouds
5:53 PM 84.9 °F 96.6 °F 78.1 °F 80% 30.04 in 10.0 mi East 12.7 mph - N/A   Partly Cloudy
6:53 PM 82.9 °F 91.8 °F 77.0 °F 82% 30.03 in 10.0 mi East 12.7 mph - N/A   Scattered Clouds
7:53 PM 82.9 °F 91.8 °F 77.0 °F 82% 30.04 in 10.0 mi East 13.8 mph - N/A   Scattered Clouds
8:53 PM 82.0 °F 90.2 °F 77.0 °F 85% 30.08 in 10.0 mi ESE 13.8 mph - N/A   Partly Cloudy
9:53 PM 82.9 °F 91.8 °F 77.0 °F 82% 30.09 in - ESE 12.7 mph - N/A   Clear
10:53 PM 82.0 °F 91.0 °F 78.1 °F 88% 30.10 in - ESE 12.7 mph - 0.00 in   Scattered Clouds
11:53 PM 82.0 °F 90.2 °F 77.0 °F 85% 30.10 in - ESE 10.4 mph - N/A   Clear